www.pogodaiklimat.ru

Погода и климат >> Архив погоды >> Беларусь >> Березинский Заповедник


ПОГОДА в Березинском Заповеднике

  • Прогноз погоды в Березинском Заповеднике
  • Монитор погоды в Березинском Заповеднике

АРХИВ ПОГОДЫ в Березинском Заповеднике

Время (UTC), дата Ветер
(напр.,м/с)
 
Видим.   Явления Облачность Т
(С)
Тd
(С)
f
(%)
Тe
(С)
Тes
(С)
Комфортность P
(гПа)
Po
(гПа)
Тmin
(С)
Tmax
(С)
R
(мм)
R24
(мм)
S
(см)
18 9.06 штиль 0 35 км {гроза} 6/0
[Ci fib]
+20.9 +13.1 61 +23 +23 комфорт 1023.2 1002.8 +26.7
21 9.06 СЗ 1 35 км 3/0
[Ci fib]
+15.5 +11.5 77 +16 +16 1024.4 1003.5
00 10.06 СЗ 2 35 км 4/0
[Ci fib]
+13.7 +10.1 79 +13 +13 1024.9 1003.9
03 10.06 штиль 0 30 км 3/0
[Ci fib]
+11.0 +10.3 95 +10 +11 1025.6 1004.3
06 10.06 В 2 35 км 8/0
[Ci fib]
+20.1 +11.5 58 +22 +29 комфорт 1025.3 1004.8 +8.8
09 10.06 СВ 1 35 км 8/3 600 м
[Cu hum Ci fib]
+22.9 +12.1 51 +26 +36 жарко 1024.3 1004.0
12 10.06 СВ 1 35 км 9/4 600 м
[Cu med, cong Ac trans Ci fib]
+24.5 +12.7 48 +26 +32 жарко 1022.9 1002.8
15 10.06 В 2 28 км 9/4 1000 м
[Cu hum Ci fib]
+25.8 +13.2 46 +28 +30 жарко 1021.1 1001.1
18 10.06 штиль 0 30 км 8/0
[Ci fib]
+19.4 +15.1 76 +21 +21 комфорт 1021.1 1000.6 +26.2
21 10.06 штиль 0 22 км 6/0
[Ci fib]
+15.3 +14.9 97 +15 +15 1022.1 1001.2
00 11.06 штиль 0 6000 м дымка 3/0
[Ci fib]
+13.5 +13.1 97 +13 +13 1022.0 1001.0
03 11.06 штиль 0 28 км 3/0
[Ci fib]
+15.0 +14.0 94 +15 +15 1021.9 1001.0
06 11.06 ЮВ 3 35 км 9/8 1080 м
[Cu med, cong Ci fib]
+22.0 +17.0 73 +26 +27 душно 1021.3 1001.0 +12.4
09 11.06 ЮВ 4 35 км 8/3 1000 м
[Cu med, cong Ci fib]
+28.0 +19.2 59 +34 +40 очень
душно
1020.0 1000.2
12 11.06 ЮВ 3 18 км 8/8 1320 м
[Cu med, cong]
+29.5 +18.7 52 +35 +37 очень
душно
1018.4 998.8
15 11.06 ЮВ 3 35 км 6/4 1000 м
[Cu med, cong Ci fib]
+30.0 +18.0 49 +35 +37 очень
душно
1017.6 998.0
18 11.06 ЮВ 1 29 км 8/0
[Ci]
+26.4 +19.4 65 +32 +32 очень
душно
1017.0 997.1 +31.0
21 11.06 Ю 1 27 км 3/0
[Ac trans]
+20.9 +18.6 87 +26 +26 душно 1018.1 997.8
00 12.06 ЮВ 1 11 км 4/0
[Ac trans]
+18.4 +18.1 98 +20 +20 1017.7 997.2
03 12.06 штиль 0 4300 м дымка 6/0
[Ac trans Ci fib]
+16.9 +16.5 97 +17 +17 1018.2 997.5
06 12.06 ЮЗ 1 35 км 6/0
[Ci fib]
+27.0 +18.8 61 +32 +40 очень
душно
1016.5 996.7 +15.9
09 12.06 З 1 30 км 8/8 1140 м
[Cu med, cong]
+30.9 +16.9 43 +34 +38 душно 1015.9 996.4
12 12.06 З 2 26 км 9/8 1020 м
[Cu med, cong Ci fib]
+31.4 +14.2 35 +33 +35 жарко 1015.2 995.8
15 12.06 ЮЗ 1 35 км 9/8 1050 м
[Cu med, cong Ci fib]
+29.1 +19.5 56 +35 +36 очень
душно
1014.5 994.9
18 12.06 СВ 2 29 км в посл. час гроза 9/0
[Ac trans Ci fib]
+24.6 +18.9 71 +30 +30 очень
душно
1016.2 996.2 +33.8
21 12.06 В 3 27 км 8/0
[Ac trans]
+22.5 +20.2 87 +29 +29 очень
душно
1017.5 997.3
00 13.06 В 2 20 км 4/0
[Ci fib]
+19.9 +19.3 96 +24 +24 комфорт 1017.9 997.5
03 13.06 В 2 14 км 6/0
[Ci sp]
+19.0 +18.8 99 +21 +22 комфорт 1018.3 997.8
06 13.06 В 3 35 км 3/0
[Ci fib]
+22.8 +19.0 79 +29 +35 очень
душно
1018.6 998.4 +18.3
09 13.06 В 3 35 км 8/0
[Cs]
+26.8 +19.7 65 +33 +43 очень
душно
1018.9 999.0
12 13.06 ЮВ 4 35 км 4/0
[Ci fib]
+29.3 +20.2 58 +36 +44 очень
душно
1017.8 998.1
15 13.06 штиль 0 30 км гроза без осадков 9/6 600 м
[Cb calv Ac trans]
+26.4 +20.7 71 +33 +34 очень
душно
1017.7 997.8
18 13.06 Ю 1 35 км в посл. час гроза 9/0
[Ac trans]
+20.4 +16.5 78 +25 +25 комфорт 1018.3 997.9 +30.1
21 13.06 ЮВ 1 30 км 9/0
[Ac trans]
+17.7 +16.2 91 +19 +19 1018.9 998.3
00 14.06 ЮВ 1 14 км 9/0
[Ac trans Ci fib]
+15.2 +15.1 99 +16 +16 1018.8 998.0
03 14.06 штиль 0 9000 м дымка 9/0
[Ci fib]
+15.0 +14.9 99 +15 +15 1018.4 997.6
06 14.06 ЮЗ 2 22 км 6/0
[Ci fib]
+25.3 +19.5 70 +31 +37 очень
душно
1016.8 996.8 +13.7
09 14.06 ЮЗ 3 35 км 8/3 600 м
[Cu hum Ci fib]
+30.4 +19.5 52 +36 +44 очень
душно
1016.1 996.6
12 14.06 СЗ 3
{11}
30 км 9/8 1140 м
[Cu med, cong Ci fib]
+28.6 +18.5 54 +33 +36 очень
душно
1015.9 996.2
15 14.06 С 3 35 км гроза без осадков 9/8 720 м
[Cb cap Ci fib]
+29.6 +18.4 51 +34 +35 очень
душно
1015.0 995.4
18 14.06 СЗ 1 35 км {гроза} 8/0
[Ci sp]
+25.2 +16.6 59 +29 +29 душно 1016.3 996.3 +32.7
21 14.06 СЗ 1 35 км 6/0
[Ci fib]
+20.4 +16.5 78 +25 +25 комфорт 1017.9 997.5
00 15.06 СЗ 1 28 км 6/0
[Ci fib]
+17.3 +16.2 93 +18 +18 1018.4 997.8
03 15.06 СЗ 2 28 км 3/0
[Ci fib]
+15.7 +13.9 89 +16 +16 1018.9 998.1
06 15.06 С 2 28 км 4/0
[Ci fib]
+19.8 +12.0 61 +22 +29 комфорт 1018.6 998.2 +15.0
09 15.06 СЗ 2 35 км 6/0
[Ci fib]
+24.3 +8.8 37 +25 +39 комфорт 1018.0 997.9
12 15.06 СЗ 3 35 км 9/0
[Ci fib]
+25.9 +9.2 35 +26 +36 жарко 1016.9 997.0
15 15.06 СЗ 3 35 км 4/0
[Ci fib]
+25.4 +10.0 38 +26 +30 жарко 1016.0 996.1

 

Местоположение метеостанции Березинский Заповедник (Минская область, Беларусь): широта 54.73 долгота 28.35 высота над уровнем моря 150 м.

В архиве по умолчанию представлена погода в Березинском Заповеднике за последнюю неделю. Архивные данные за месяц целиком и за предыдущие месяцы, начиная с января 2011 года, Вы можете получить, выбрав интересующий диапазон дат из раскрывающегося списка и нажав кнопку "Ввод!".


*Определитесь, кто Вы:
робот инопланетянин человек

Внимание! Время в таблицах - всемирное. Для получения местного времени необходимо прибавить поправку, которая равна 3 ч.

Смотрите также архив погоды в соседних городах и на ближайших метеорологических станциях:

Погода в Лепеле (Витебская область, Беларусь) (27 км)
Погода в Докшицах (Витебская область, Беларусь) (42 км)
Погода в Борисове (Минская область, Беларусь) (52 км)
Погода в Сенно (Витебская область, Беларусь) (87 км)
Погода в Полоцке (Витебская область, Беларусь) (87 км)
Погода в Шарковщине (Витебская область, Беларусь) (91 км)
Погода в Вилейке (Минская область, Беларусь) (91 км)
Погода в Минске (город Минск, Беларусь) (95 км)
Погода в Нарочи (Минская область, Беларусь) (108 км)
Погода в Березино (Минская область, Беларусь) (108 км)

Пояснения к столбцам:

Ветер - указаны скорость ветра в м/с - средняя за 10 мин, порывы в срок и между сроками (в фигурных скобках) и направление, откуда дует ветер: С - северный, СВ - северо-восточный, В - восточный, ЮВ - юго-восточный, Ю - южный, ЮЗ - юго-западный, З - западный, СЗ - северо-западный.
Видимость - горизонтальная дальность видимости в метрах или километрах. При видимости от 1 до 10 км при отсутствии осадков обычно наблюдается дымка, при ухудшении видимости до 1 км и менее - туман. В сухую погоду видимость может ухудшаться дымом, пылью или мглою.
Явления - указаны атмосферные явления, наблюдавшиеся в срок или в последний час перед сроком; фигурными скобками обозначены явления, наблюдавшиеся между сроками (за 1-3 часа до срока); квадратными скобками обозначены град или гололедные отложения с указанием их диаметра в мм.
Облачность - указаны через наклонную черту общая и нижняя облачность в баллах и высота нижней границы облаков в метрах; квадратными скобками обозначены формы облаков: Ci - перистые, Cs - перисто-слоистые, Cc - перисто-кучевые, Ac - высококучевые, As - высокослоистые, Sc - слоисто-кучевые, Ns - слоисто-дождевые, Cu - кучевые, Cb - кучево-дождевые. Подробнее классификацию облаков см. в Атласе облаков (PDF).
T - Температура воздуха - температура, измеренная на высоте 2 м над землей.
Td - Температура точки росы - температура, при понижении до которой содержащийся в воздухе водяной пар достигнет насыщения.
f - Относительная влажность воздуха - влажноcть воздуха, измеренная на высоте 2 м над землей.
Te - Эффективная температура - температура, которую ощущает одетый по сезону человек в тени. Характеристика душности погоды. При расчете учитывается влияние влажности воздуха и скорости ветра на теплоощущения человека.
Tes - Эффективная температура на солнце - температура, которую ощущает человек, с поправкой на солнечный нагрев. Характеристика знойности погоды. Зависит от высоты солнца над горизонтом, облачности и скорости ветра. Ночью, в пасмурную погоду, а также при ветре 12 м/с и более поправка равна нулю.
P - Атмосферное давление - приведенное к уровню моря атмосферное давление.
Po - Атмосферное давление - измеренное на уровне метеостанции атмосферное давление.
Tmin - Минимальная температура - минимум температуры воздуха на высоте 2 м над землей.
Tmax - Максимальная температура - максимум температуры воздуха на высоте 2 м над землей.
R - Количество осадков - Количество выпавших осадков за период времени, мм. При наведении курсора мыши на число - период времени, за который выпало указанное количество осадков.
R24 - Количество осадков - Количество выпавших осадков за 24 часа, мм.
S - Снежный покров - Высота снежного покрова, см. При наведении курсора мыши на число - состояние снежного покрова и степень покрытия местности в баллах.